Regional Weather Roundup
Issued by NWS

Home | Current Version | Previous Version | Text Only | Print | Product List | Glossary Off
Versions: 1 2 3 4 5 6 7 8 9 10 11 12 13 14 15 16 17 18 19 20 21 22 23 24 25 26 27 28

000
ASUS45 KBOU 232307
RWRCO

WEATHER ROUNDUP FOR COLORADO
NATIONAL WEATHER SERVICE DENVER/BOULDER CO
500 PM MDT TUE AUG 23 2016

NOTE: "FAIR" INDICATES FEW OR NO CLOUDS BELOW 12000 FEET WITH NO
SIGNIFICANT WEATHER AND/OR OBSTRUCTIONS TO VISIBILITY.

COZ001>005-013-030-031-240000-
...NORTHWEST COLORADO...

CITY           SKY/WX    TMP DP  RH WIND       PRES   REMARKS
CRAIG          FAIR      78  32  18 S10       30.12F
HAYDEN         FAIR      77  28  16 W5        30.16S
MEEKER         PTSUNNY   73  39  29 NW10      30.16R THUNDER
MOUNT WERNER   NOT AVBL
STEAMBOAT SPGS FAIR      73  33  22 SE5       30.18S
WALDEN         FAIR      66  32  28 SW7       30.29S
$$

COZ006>008-011-240000-
...WEST CENTRAL VALLEYS...

CITY           SKY/WX    TMP DP  RH WIND       PRES   REMARKS
GRAND JUNCTION FAIR      78  47  33 W7        30.10S
MONTROSE       PTSUNNY   66  48  52 SE10      30.20F
EAGLE          MOSUNNY   73  36  25 W14G21    30.21R
RIFLE          FAIR      78  46  32 E7        30.11F
DELTA          FAIR      75  49  38 S8        30.16R
NUCLA          RAIN      55  52  88 SW6       30.32R
$$

COZ017>023-064>068-240000-
...SOUTHWEST COLORADO...

CITY           SKY/WX    TMP DP  RH WIND       PRES   REMARKS
DURANGO        LGT RAIN  56  52  86 NE14      30.30F
CORTEZ         RAIN      56  54  93 E10       30.28S FOG
PAGOSA SPRINGS TSTM      54  52  95 W9        30.38R
TELLURIDE      LGT RAIN  49  48  97 CALM      30.43S
WOLF CREEK PAS CLOUDY    37  37 100 NE5       30.58F
$$

COZ009-010-012-014-032>034-037-058>063-240000-
...CENTRAL COLORADO...

CITY           SKY/WX    TMP DP  RH WIND       PRES   REMARKS
ASPEN          CLOUDY    68  36  30 NW16G25   30.26R
BUENA VISTA    CLOUDY    60  42  52 SW10      30.33R
COPPER MTN     CLOUDY    54  32  43 SE14      30.55F THUNDER
BERTHOUD PASS  CLOUDY    43  30  61 E17G25    30.59F THUNDER
COTTONWOOD PAS CLOUDY    52  39  62 W9        30.45S
GUNNISON       FAIR      63  43  48 SW15G22   30.30S
KREMMLING      FAIR      70  28  21 NW8G17    30.25R
LEADVILLE      LGT RAIN  52  38  58 S8        30.43R
MONARCH PASS   TSTM      37  36  93 E14       30.66R
SALIDA         CLOUDY    59  51  73 S8        30.40R
SUNLIGHT       CLOUDY    55  32  41 CALM      30.51S
WILKERSON PASS CLOUDY    43  37  81 NE13      30.55S
$$

COZ069>075-240000-
...SAN LUIS VALLEY/SANGRE DE CRISTO MOUNTAINS...

CITY           SKY/WX    TMP DP  RH WIND       PRES   REMARKS
ALAMOSA        FAIR      66  44  45 W17       30.26F
LA VETA PASS   FAIR      61  41  48 S14G22    30.42S
SAGUACHE       PTSUNNY   63  41  45 NW24G31   30.29R
$$

COZ035-036-038>040-240000-
...NORTHERN COLORADO FRONT RANGE...

CITY           SKY/WX    TMP DP  RH WIND       PRES   REMARKS
DENVER INTL AP PTSUNNY   79  38  22 SW21      30.09S
DMNS CITY PARK   N/A     77  39  25 W3G13     30.11R
AURORA         PTSUNNY   77  39  25 W12       30.13R
FRONT RANGE AP CLOUDY    81  37  21 W14G21    30.11R
ERIE MUNI ARPT PTSUNNY   79  33  18 S15G26    30.08R
BOULDER MUN AP PTSUNNY   79  37  22 SW9G16    30.08R
CENTENNIAL     CLOUDY    76  37  24 SW15G21   30.14S
BROOMFIELD     PTSUNNY   77  37  24 SW17      30.13R
FORT COLLINS   PTSUNNY   81  36  19 N9G20     30.05R
LONGMONT       CLOUDY    82  39  22 W9        30.10R
$$

COZ041-046-047-076>085-087-088-240000-
...PIKES PEAK/PALMER DIVIDE AND SOUTHERN FOOTHILLS...

CITY           SKY/WX    TMP DP  RH WIND       PRES   REMARKS
COLO. SPRINGS  CLOUDY    73  39  29 W20       30.16R
A. F. ACADEMY  PTSUNNY   69  40  34 W15       30.19F
SCHRIEVER AFB  NOT AVBL
ELLICOTT       NOT AVBL
FALCON         CLOUDY    72  33  23 N6        30.20F
FORT CARSON    NOT AVBL
LIMON          FAIR      83  27  13 N10       30.07S
MONUMENT HILL  PTSUNNY   68  39  34 W18       30.24S
TRINIDAD       FAIR      83  40  21 E6        30.06F
$$

COZ042>045-048>051-090-091-240000-
...NORTHEAST COLORADO...

CITY           SKY/WX    TMP DP  RH WIND       PRES   REMARKS
GREELEY ARPT   FAIR      84  39  20 S6        30.03S
AKRON          FAIR      87  26  11 N17       30.02R
BURLINGTON     FAIR      93  19   7 N14       29.97S
WRAY           FAIR      91  27   9 N17G24    29.94
STERLING       FAIR      88  32  13 NE12      29.97S
HOLYOKE        FAIR      91  32  12 N15G21    29.96R
FORT MORGAN    FAIR      87  23   9 N14G20    30.01S
$$

COZ086-089-092>099-240000-
...SOUTHEAST COLORADO...

CITY           SKY/WX    TMP DP  RH WIND       PRES   REMARKS
PUEBLO         FAIR      87  35  15 E13G22    30.01S
LA JUNTA       FAIR      92  33  12 E10       29.95F
LAMAR          FAIR      96  34  11 VRB3      29.89F
SPRINGFIELD      N/A     90  48  23 VRB5      29.97S
$$




USA.gov is the U.S. government's official web portal to all federal, state and local government web resources and services.